Zurück zum Katalog

STARLINK-35118

AktivKommunikationVLEO
NORAD 66858·PAYLOAD·🇺🇸 United States

Gestartet Dec 2, 2025 von Cape Canaveral Space Force Station

Loading…

Nächste Überflüge (nächste 24 Stunden)

TLE

AktuellSource: CelesTrak SupGP

Epoche: Sep 14, 2026, 14:43 UTC

1 66858C 25281L   26257.61368056 -.00021399  00000+0 -77541-3 0  2577
2 66858  43.0035 356.6339 0001346 277.0910 234.3897 15.27574863    10

Verfolge STARLINK-35118 in Echtzeit mit AllMySat

Download on the App Store